Home > Weather > Naha > Past weeks

Flag for Japan Past Weather in Naha, Okinawa, Japan — Yesterday and Last 2 Weeks

Now
82 °F

Broken clouds.


Feels Like: 91 °F
Forecast: 81 / 89 °F
Wind: 10 mph from Southwest

Location: Naha Airport

Current Time: Jun 1, 2016 at 6:50:58 AM

Latest Report: Jun 1, 2016 at 6:00 AM


Visibility: N/A

Pressure: 29.68 "Hg

Humidity: 84%

Dew Point: 77 °F

Location of NahaLocation

Past Weather in Naha — Graph

°F

Naha Temperature Yesterday

Maximum temperature yesterday: 84 °F (at 4:00 PM)
Minimum temperature yesterday: 77 °F (at 12:30 AM)
Average temperature yesterday: 80 °F

High & Low Weather Summary for the Past Weeks

 TemperatureHumidityPressure
High88 °F (May 29, 2:00 PM)94% (May 17, 5:30 AM)29.98 "Hg (May 17, 5:30 AM)
Low68 °F (May 17, 6:30 PM)70% (May 21, 3:30 PM)29.68 "Hg (Jun 1, 3:30 AM)
Average79 °F87%29.81 "Hg
* Reported May 17 5:00 AM — Jun 1 5:30 AM, Naha, Weather by CustomWeather, © 2016

Note: Actual official high and low records may vary slightly from our data, if they occured in-between our weather recording intervals... More about our weather records

Advertising

Naha Weather History for the Previous 24 Hours

Scroll right to see more
 ConditionsComfort  
Time TempWeatherWind HumidityBarometerVisibility
5:30 AM
Wed, Jun 1
82 °FPartly cloudy.10 mph89%29.68 "HgN/A
5:00 AM81 °FPassing clouds.7 mph89%29.68 "HgN/A
4:30 AM81 °FPartly cloudy.5 mph94%29.68 "HgN/A
4:00 AM81 °FPassing clouds.6 mph94%29.68 "HgN/A
3:30 AM81 °FPassing clouds.5 mph94%29.68 "HgN/A
3:00 AM81 °FPartly cloudy.6 mph89%29.71 "HgN/A
2:30 AM81 °FPartly cloudy.8 mph89%29.71 "HgN/A
2:00 AM81 °FPassing clouds.6 mph89%29.71 "HgN/A
1:30 AM81 °FPassing clouds.3 mph89%29.74 "HgN/A
1:00 AM81 °FPassing clouds.5 mph89%29.74 "HgN/A
12:30 AM81 °FPassing clouds.6 mph89%29.74 "HgN/A
12:00 AM81 °FPassing clouds.7 mph84%29.74 "HgN/A
11:30 PM
Tue, May 31
81 °FPassing clouds.6 mph84%29.77 "HgN/A
11:00 PM81 °FPassing clouds.5 mph84%29.77 "HgN/A
10:30 PM81 °FPassing clouds.6 mph84%29.77 "HgN/A
10:00 PM81 °FPassing clouds.2 mph79%29.77 "HgN/A
9:30 PM81 °FPassing clouds.1 mph79%29.77 "HgN/A
9:00 PM81 °FPassing clouds.2 mph79%29.77 "HgN/A
8:30 PM81 °FPassing clouds.2 mph79%29.77 "HgN/A
8:00 PM81 °FPassing clouds.2 mph79%29.77 "HgN/A
7:30 PM81 °FPartly cloudy.3 mph79%29.77 "HgN/A
7:00 PM81 °FScattered clouds.3 mph79%29.77 "HgN/A
6:30 PM81 °FPartly sunny.3 mph79%29.77 "HgN/A
6:00 PM81 °FPassing clouds.5 mph79%29.77 "HgN/A
5:30 PM82 °FScattered clouds.5 mph74%29.77 "HgN/A
5:00 PM82 °FPartly sunny.5 mph74%29.74 "HgN/A
4:30 PM82 °FBroken clouds.3 mph74%29.74 "HgN/A
4:00 PM84 °FBroken clouds.5 mph74%29.77 "HgN/A
3:30 PM82 °FScattered clouds.5 mph74%29.77 "HgN/A
3:00 PM82 °FBroken clouds.3 mph79%29.77 "HgN/A
2:30 PM82 °FScattered clouds.6 mph79%29.77 "HgN/A
2:00 PM82 °FPartly sunny.6 mph74%29.77 "HgN/A
1:30 PM82 °FPartly sunny.5 mph74%29.77 "HgN/A
1:00 PM82 °FPartly sunny.7 mph74%29.80 "HgN/A
12:30 PM82 °FBroken clouds.7 mph74%29.80 "HgN/A
12:00 PM81 °FScattered clouds.7 mph79%29.80 "HgN/A
11:30 AM81 °FPartly sunny.7 mph79%29.80 "HgN/A
11:00 AM82 °FBroken clouds.8 mph79%29.83 "HgN/A
10:30 AM81 °FPartly sunny.6 mph79%29.83 "HgN/A
10:00 AM81 °FPartly sunny.8 mph79%29.83 "HgN/A
9:30 AM81 °FBroken clouds.6 mph79%29.83 "HgN/A
9:00 AM81 °FBroken clouds.5 mph79%29.83 "HgN/A
8:30 AM81 °FBroken clouds.5 mph79%29.83 "HgN/A
8:00 AM81 °FBroken clouds.3 mph89%29.80 "HgN/A
7:30 AM79 °FBroken clouds.6 mph84%29.80 "HgN/A
7:00 AM79 °FBroken clouds.6 mph84%29.80 "HgN/A
6:30 AM77 °FPartly sunny.3 mph89%29.80 "HgN/A
6:00 AM77 °FBroken clouds.6 mph89%29.77 "HgN/A
Weather by CustomWeather, © 2016

See weather overviewHow to use our weather pages